Somerville, NJ

6:31 PM EST on November 16, 2019 (GMT -0500)
Somerset

Weather History for KSMQ - September, 2019

Change the Weather History Date:

Friday, September 27, 2019

  Actual Average Record
Temperature  
Mean Temperature 62 °F -  
Max Temperature 79 °F 71 °F 90 °F (1970)
Min Temperature 46 °F 48 °F 29 °F (1947)
Degree Days  
Heating Degree Days 3    
Growing Degree Days 12 (Base 50)    
Moisture  
Dew Point 50 °F    
Average Humidity 80    
Maximum Humidity 100    
Minimum Humidity 29    
Precipitation  
Precipitation 0.00 in - - ()
Sea Level Pressure  
Sea Level Pressure 30.07 in    
Wind  
Wind Speed 1 mph (SW)    
Max Wind Speed 6 mph    
Max Gust Speed -    
Visibility 5 miles    
Events Fog    
Averages and records for this station are not official NWS values.
T = Trace of Precipitation, MM = Missing Value Source: NWS Daily Summary

Daily Weather History Graph

Daily Weather History Graph

Search for Another Location

Airport or City:

Astronomy

Sep. 27, 2019 Rise Set
Actual Time 6:50 AM EDT 6:47 PM EDT
Civil Twilight 6:23 AM EDT 7:15 PM EDT
Nautical Twilight 5:51 AM EDT 7:46 PM EDT
Astronomical Twilight 5:19 AM EDT 8:18 PM EDT
Moon 5:08 AM EDT (9/27) 6:37 PM EDT (9/27)
Length of Visible Light 12h 51m
Length of Day
11h 56m
Waning Crescent, 2% of the Moon is Illuminated
Sep 27
Waning Crescent
Sep 28
New
Oct 5
First Quarter
Oct 13
Full
Oct 21
Last Quarter

Hourly Weather History & Observations

Time (EDT) Temp. Dew Point Humidity Pressure Visibility Wind Dir Wind Speed Gust Speed Precip Events Conditions
12:18 AM 54.0 °F 53.1 °F 97% 29.95 in 0.8 mi Calm Calm - N/A   Mist
12:38 AM 53.1 °F 52.0 °F 96% 29.95 in 0.2 mi Calm Calm - N/A Fog Fog
12:53 AM 54.0 °F 53.1 °F 97% 29.96 in 0.2 mi Calm Calm - N/A Fog Fog
1:53 AM 55.0 °F 55.0 °F 100% 29.98 in 0.2 mi Calm Calm - N/A Fog Fog
2:53 AM 54.0 °F 54.0 °F 100% 29.99 in 0.2 mi Calm Calm - N/A Fog Fog
3:53 AM 53.1 °F 53.1 °F 100% 30.01 in 0.2 mi Calm Calm - N/A Fog Fog
4:53 AM 51.1 °F 51.1 °F 100% 30.03 in 0.5 mi NNW 3.5 mph - N/A Fog Fog
5:09 AM 51.1 °F 50.0 °F 96% 30.03 in 0.2 mi Calm Calm - N/A Fog Fog
5:44 AM 48.9 °F 48.9 °F 100% 30.04 in 0.5 mi Calm Calm - N/A Fog Fog
5:53 AM 48.9 °F 48.0 °F 97% 30.05 in 0.5 mi Calm Calm - N/A Fog Fog
6:30 AM 48.0 °F 46.9 °F 96% 30.06 in 0.2 mi Calm Calm - N/A Fog Fog
6:41 AM 48.0 °F 48.0 °F 100% 30.07 in 0.5 mi NW 3.5 mph - N/A Fog Fog
6:53 AM 46.9 °F 46.9 °F 100% 30.08 in 0.2 mi NW 3.5 mph - N/A Fog Fog
7:04 AM 48.0 °F 46.9 °F 96% 30.08 in 0.2 mi North - - N/A Fog Fog
7:23 AM 46.9 °F 46.0 °F 97% 30.09 in 1.0 mi Calm Calm - N/A   Mist
7:28 AM 48.0 °F 46.0 °F 93% 30.09 in 2.5 mi Calm Calm - N/A   Scattered Clouds
7:35 AM 48.0 °F 46.9 °F 96% 30.09 in 5.0 mi Calm Calm - N/A   Partly Cloudy
7:53 AM 48.9 °F 48.0 °F 97% 30.11 in 7.0 mi Calm Calm - N/A   Clear
8:53 AM 55.0 °F 54.0 °F 96% 30.13 in 10.0 mi Calm Calm - N/A   Clear
9:53 AM 63.0 °F 57.0 °F 81% 30.15 in 10.0 mi Calm Calm - N/A   Clear
10:53 AM 69.1 °F 51.1 °F 53% 30.14 in 10.0 mi Calm Calm - N/A   Clear
11:53 AM 72.0 °F 45.0 °F 38% 30.14 in 10.0 mi Calm Calm - N/A   Clear
12:53 PM 73.9 °F 44.1 °F 34% 30.12 in 10.0 mi WSW 5.8 mph - N/A   Clear
1:53 PM 77.0 °F 42.1 °F 29% 30.09 in 10.0 mi Variable 4.6 mph - N/A   Clear
2:53 PM 77.0 °F 45.0 °F 32% 30.08 in 10.0 mi South 5.8 mph - N/A   Clear
3:53 PM 78.1 °F 45.0 °F 31% 30.06 in 10.0 mi Calm Calm - N/A   Clear
4:53 PM 75.9 °F 46.0 °F 35% 30.07 in 10.0 mi South 5.8 mph - N/A   Clear
5:53 PM 73.9 °F 45.0 °F 35% 30.08 in 10.0 mi Calm Calm - N/A   Clear
6:53 PM 64.0 °F 50.0 °F 60% 30.09 in 10.0 mi Calm Calm - N/A   Clear
7:53 PM 62.1 °F 55.0 °F 78% 30.10 in 10.0 mi SE 3.5 mph - N/A   Clear
8:53 PM 64.0 °F 57.0 °F 78% 30.11 in 10.0 mi SE 3.5 mph - N/A   Clear
9:53 PM 60.1 °F 55.9 °F 86% 30.12 in 10.0 mi Calm Calm - N/A   Clear
10:53 PM 57.0 °F 55.0 °F 93% 30.13 in 10.0 mi Calm Calm - N/A   Clear
11:53 PM 55.0 °F 54.0 °F 96% 30.12 in 9.0 mi Calm Calm - N/A   Clear